• In Italy
  • List of Countries
  • For 7 days
  • Water Temperature
  • Satellite Maps
  • Weather Map
  • Weather Widgets
  • user-avatar
    Login

    Hourly Weather Tibissa

    Today, 16 January, Tuesday

    Time Temperature Precipitation Wind Pressure Humidity
    00:00 +6°C° 0 mm 0 mps 689 mmHg 58%
    01:00 +5°C° 0 mm 0 mps 690 mmHg 61%
    02:00 +5°C° 0 mm 0 mps 690 mmHg 62%
    03:00 +6°C° 0 mm 1 mps 690 mmHg 64%
    04:00 +6°C° 0 mm 1 mps 690 mmHg 65%
    05:00 +5°C° 0 mm 1 mps 690 mmHg 66%
    06:00 +5°C° 0 mm 1 mps 690 mmHg 68%
    07:00 +5°C° 0 mm 1 mps 690 mmHg 67%
    08:00 +7°C° 0 mm 1 mps 690 mmHg 60%
    09:00 +8°C° 0 mm 2 mps 691 mmHg 53%
    10:00 +10°C° 0 mm 2 mps 691 mmHg 46%
    11:00 +11°C° 0 mm 3 mps 692 mmHg 42%
    12:00 +13°C° 0 mm 3 mps 692 mmHg 37%
    13:00 +14°C° 0 mm 4 mps 692 mmHg 33%
    14:00 +14°C° 0 mm 4 mps 692 mmHg 33%
    15:00 +14°C° 0 mm 4 mps 691 mmHg 32%
    16:00 +14°C° 0 mm 4 mps 691 mmHg 32%
    17:00 +13°C° 0 mm 3 mps 690 mmHg 38%
    18:00 +12°C° 0 mm 2 mps 690 mmHg 44%
    19:00 +10°C° 0 mm 1 mps 690 mmHg 50%
    20:00 +9°C° 0 mm 1 mps 690 mmHg 52%
    21:00 +9°C° 0 mm 1 mps 690 mmHg 54%
    22:00 +8°C° 0 mm 1 mps 690 mmHg 55%
    23:00 +8°C° 0 mm 1 mps 689 mmHg 54%

    Tomorrow, 17 January, Wednesday

    Time Temperature Precipitation Wind Pressure Humidity
    00:00 +7°C° 0 mm 2 mps 689 mmHg 53%
    01:00 +7°C° 0 mm 2 mps 689 mmHg 53%
    02:00 +7°C° 0 mm 2 mps 688 mmHg 53%
    03:00 +7°C° 0 mm 2 mps 688 mmHg 53%
    04:00 +6°C° 0 mm 2 mps 687 mmHg 53%
    05:00 +6°C° 0 mm 2 mps 687 mmHg 53%
    06:00 +6°C° 0 mm 2 mps 687 mmHg 52%
    07:00 +6°C° 0 mm 2 mps 687 mmHg 52%
    08:00 +8°C° 0 mm 2 mps 687 mmHg 46%
    09:00 +9°C° 0 mm 2 mps 688 mmHg 41%
    10:00 +12°C° 0 mm 2 mps 689 mmHg 35%
    11:00 +13°C° 0 mm 3 mps 689 mmHg 31%
    12:00 +14°C° 0 mm 4 mps 689 mmHg 27%
    13:00 +15°C° 0 mm 4 mps 689 mmHg 23%
    14:00 +15°C° 0 mm 5 mps 689 mmHg 26%
    15:00 +15°C° 0 mm 6 mps 688 mmHg 30%
    16:00 +15°C° 0 mm 7 mps 688 mmHg 33%
    17:00 +13°C° 0 mm 6 mps 688 mmHg 45%
    18:00 +10°C° 0 mm 5 mps 688 mmHg 56%
    19:00 +8°C° 0 mm 5 mps 688 mmHg 67%
    20:00 +8°C° 0 mm 5 mps 689 mmHg 74%
    21:00 +7°C° 0 mm 4 mps 689 mmHg 81%
    22:00 +6°C° 0 mm 4 mps 689 mmHg 88%
    23:00 +6°C° 0 mm 4 mps 690 mmHg 89%

    Day after tomorrow, 18 January, Thursday

    Time Temperature Precipitation Wind Pressure Humidity
    00:00 +6°C° 0 mm 4 mps 690 mmHg 89%
    01:00 +6°C° 0 mm 4 mps 690 mmHg 90%
    02:00 +5°C° 0 mm 3 mps 690 mmHg 90%
    03:00 +5°C° 0 mm 3 mps 690 mmHg 91%
    04:00 +4°C° 0 mm 3 mps 690 mmHg 92%
    05:00 +5°C° 0 mm 2 mps 690 mmHg 92%
    06:00 +4°C° 0 mm 2 mps 690 mmHg 93%
    07:00 +5°C° 0 mm 1 mps 690 mmHg 93%
    08:00 +6°C° 0 mm 1 mps 690 mmHg 87%
    09:00 +7°C° 0 mm 1 mps 691 mmHg 80%
    10:00 +9°C° 0 mm 1 mps 692 mmHg 74%
    11:00 +10°C° 0 mm 1 mps 691 mmHg 66%
    12:00 +10°C° 0 mm 2 mps 691 mmHg 57%
    13:00 +13°C° 0 mm 2 mps 691 mmHg 49%
    14:00 +12°C° 0 mm 3 mps 691 mmHg 48%
    15:00 +13°C° 0 mm 3 mps 690 mmHg 46%
    16:00 +13°C° 0 mm 4 mps 690 mmHg 44%
    17:00 +12°C° 0 mm 3 mps 690 mmHg 50%
    18:00 +10°C° 0 mm 3 mps 689 mmHg 57%
    19:00 +9°C° 0 mm 3 mps 689 mmHg 63%
    20:00 +8°C° 0 mm 3 mps 689 mmHg 67%
    21:00 +8°C° 0 mm 3 mps 689 mmHg 71%
    22:00 +7°C° 0 mm 3 mps 689 mmHg 75%
    23:00 +7°C° 0 mm 3 mps 688 mmHg 77%

    19 January, Friday

    Time Temperature Precipitation Wind Pressure Humidity
    00:00 +5°C° 0 mm 3 mps 688 mmHg 79%
    01:00 +5°C° 0 mm 3 mps 687 mmHg 81%
    02:00 +5°C° 0 mm 3 mps 687 mmHg 80%
    03:00 +4°C° 0 mm 3 mps 686 mmHg 79%
    04:00 +4°C° 0 mm 3 mps 685 mmHg 78%
    05:00 +5°C° 0 mm 2 mps 685 mmHg 76%
    06:00 +5°C° 0 mm 2 mps 685 mmHg 74%
    07:00 +5°C° 0 mm 2 mps 685 mmHg 72%
    08:00 +6°C° 0 mm 2 mps 685 mmHg 63%
    09:00 +8°C° 0 mm 2 mps 685 mmHg 55%
    10:00 +10°C° 0 mm 2 mps 685 mmHg 47%
    11:00 +12°C° 0 mm 2 mps 685 mmHg 41%
    12:00 +13°C° 0 mm 3 mps 684 mmHg 36%
    13:00 +14°C° 0 mm 3 mps 684 mmHg 30%
    14:00 +16°C° 0 mm 2 mps 684 mmHg 29%
    15:00 +16°C° 0 mm 2 mps 683 mmHg 28%
    16:00 +16°C° 0 mm 2 mps 683 mmHg 27%
    17:00 +14°C° 0 mm 1 mps 682 mmHg 33%
    18:00 +12°C° 0 mm 1 mps 682 mmHg 39%
    19:00 +10°C° 0 mm 1 mps 681 mmHg 46%
    20:00 +10°C° 0 mm 1 mps 681 mmHg 49%
    21:00 +10°C° 0 mm 1 mps 682 mmHg 51%
    22:00 +8°C° 0 mm 2 mps 682 mmHg 54%
    23:00 +8°C° 0 mm 2 mps 681 mmHg 59%

    20 January, Saturday

    Time Temperature Precipitation Wind Pressure Humidity
    00:00 +7°C° 0 mm 2 mps 681 mmHg 63%
    01:00 +7°C° 0 mm 3 mps 681 mmHg 68%
    02:00 +7°C° 0 mm 3 mps 681 mmHg 72%
    03:00 +6°C° 0 mm 4 mps 681 mmHg 76%
    04:00 +5°C° 0 mm 5 mps 680 mmHg 80%
    05:00 +4°C° 0 mm 6 mps 681 mmHg 81%
    06:00 +4°C° 0 mm 6 mps 681 mmHg 83%
    07:00 +4°C° 0 mm 7 mps 681 mmHg 85%
    08:00 +5°C° 0 mm 8 mps 681 mmHg 80%
    09:00 +5°C° 0 mm 9 mps 682 mmHg 75%
    10:00 +6°C° 0 mm 11 mps 682 mmHg 71%
    11:00 +6°C° 0 mm 11 mps 682 mmHg 67%
    12:00 +7°C° 0 mm 12 mps 682 mmHg 63%
    13:00 +7°C° 0 mm 13 mps 682 mmHg 59%
    14:00 +7°C° 0.1 mm 13 mps 682 mmHg 59%
    15:00 +5°C° 0.1 mm 13 mps 681 mmHg 59%
    16:00 +4°C° 0.1 mm 14 mps 681 mmHg 58%
    17:00 +4°C° 0.1 mm 14 mps 681 mmHg 62%
    18:00 +2°C° 0.1 mm 15 mps 682 mmHg 65%
    19:00 +2°C° 0.1 mm 15 mps 682 mmHg 68%
    20:00 +1°C° 0.2 mm 14 mps 682 mmHg 70%
    21:00 +1°C° 0.2 mm 13 mps 683 mmHg 71%
    22:00 0°C° 0.2 mm 12 mps 683 mmHg 72%
    23:00 0°C° 0.1 mm 12 mps 683 mmHg 73%

    21 January, Sunday

    Time Temperature Precipitation Wind Pressure Humidity
    00:00 0°C° 0.1 mm 12 mps 683 mmHg 74%
    01:00 0°C° 0.1 mm 12 mps 683 mmHg 74%
    02:00 +2°C° 0 mm 12 mps 683 mmHg 76%
    03:00 +2°C° 0 mm 12 mps 683 mmHg 77%
    04:00 +2°C° 0 mm 11 mps 683 mmHg 78%
    05:00 +2°C° 0 mm 11 mps 683 mmHg 79%
    06:00 +2°C° 0 mm 10 mps 683 mmHg 80%
    07:00 +2°C° 0 mm 9 mps 683 mmHg 81%
    08:00 +3°C° 0.1 mm 9 mps 683 mmHg 81%
    09:00 +3°C° 0.1 mm 9 mps 683 mmHg 80%
    10:00 +5°C° 0.1 mm 9 mps 683 mmHg 80%
    11:00 +5°C° 0.3 mm 8 mps 684 mmHg 80%
    12:00 +6°C° 0.3 mm 8 mps 684 mmHg 80%
    13:00 +6°C° 0.3 mm 8 mps 684 mmHg 80%
    14:00 +6°C° 0.2 mm 8 mps 684 mmHg 81%
    15:00 +6°C° 0.2 mm 8 mps 684 mmHg 82%
    16:00 +6°C° 0.2 mm 7 mps 683 mmHg 83%
    17:00 +6°C° 0.1 mm 7 mps 684 mmHg 85%
    18:00 +7°C° 0.1 mm 6 mps 684 mmHg 86%
    19:00 +5°C° 0.1 mm 6 mps 684 mmHg 88%
    20:00 +5°C° 0.1 mm 7 mps 685 mmHg 86%
    21:00 +5°C° 0.1 mm 8 mps 685 mmHg 85%
    22:00 +5°C° 0.1 mm 9 mps 686 mmHg 84%
    23:00 +5°C° 0 mm 9 mps 686 mmHg 85%
    Show more